Location: Nachod
(50.4170°N, 16.1670°E)
Time: 11:59:22
(UTC+01:00)

PCSat - Visible Passes

Search period start: 05 March 2021 00:00
Search period end: 15 March 2021 00:00
Orbit: 784 x 795 km, 67.1° (Epoch: 05 March)

Date Brightness Start Highest point End Pass type
(mag) Time Alt. Az. Time Alt. Az. Time Alt. Az.
05 Mar 10.2 03:11:44 51° E 03:11:44 51° E 03:16:21 10° NE visible
05 Mar 10.3 04:52:26 26° W 04:54:41 36° NW 04:59:43 10° NNE visible
06 Mar 11.0 02:41:39 34° ENE 02:41:39 34° ENE 02:45:12 10° NE visible
06 Mar 10.0 04:22:21 38° WNW 04:23:31 44° NW 04:28:44 10° NNE visible
07 Mar 11.6 02:11:31 23° ENE 02:11:31 23° ENE 02:13:58 10° NE visible
07 Mar 9.7 03:52:13 55° NW 03:52:22 55° NW 03:57:44 10° NNE visible
07 Mar 11.2 05:33:06 10° WNW 05:36:58 19° NNW 05:40:51 10° NNE visible
08 Mar 12.1 01:41:21 15° ENE 01:41:21 15° ENE 01:42:38 10° ENE visible
08 Mar 9.8 03:22:03 60° N 03:22:03 60° N 03:26:44 10° NNE visible
08 Mar 11.1 05:02:45 15° WNW 05:05:39 22° NNW 05:09:50 10° NNE visible
09 Mar 10.4 02:51:50 47° NNE 02:51:50 47° NNE 02:55:42 10° NE visible
09 Mar 10.9 04:32:32 21° WNW 04:34:21 25° NNW 04:38:51 10° NNE visible
10 Mar 11.0 02:21:36 34° NE 02:21:36 34° NE 02:24:39 10° NE visible
10 Mar 10.6 04:02:18 28° NW 04:03:06 30° NW 04:07:52 10° NNE visible
10 Mar 11.7 05:45:20 10° NW 05:48:18 15° N 05:51:17 10° NNE visible
11 Mar 11.6 01:51:20 24° NE 01:51:20 24° NE 01:53:33 10° NE visible
11 Mar 10.5 03:32:01 35° NW 03:32:01 35° NW 03:36:53 10° NNE visible
11 Mar 11.6 05:13:41 10° NW 05:16:54 16° NNW 05:20:08 10° NNE visible
12 Mar 12.0 01:21:02 17° NE 01:21:02 17° NE 01:22:24 10° NE visible
12 Mar 10.5 03:01:43 39° NNW 03:01:43 39° NNW 03:05:54 10° NNE visible
12 Mar 11.5 04:42:25 11° NW 04:45:32 17° NNW 04:49:03 10° NNE visible
13 Mar 12.3 00:50:42 12° NE 00:50:42 12° NE 00:51:10 10° NE visible
13 Mar 10.8 02:31:24 37° N 02:31:24 37° N 02:34:55 10° NNE visible
13 Mar 11.4 04:12:05 16° NW 04:14:10 19° NNW 04:18:01 10° NNE visible
14 Mar 11.2 02:01:03 31° NNE 02:01:03 31° NNE 02:03:54 10° NNE visible
14 Mar 11.2 03:41:44 20° NW 03:42:51 22° NNW 03:47:00 10° NNE visible
14 Mar 11.8 05:25:39 10° NNW 05:28:21 14° N 05:31:03 10° NNE visible
